Hourly Data Report for October 05, 2017

All times are specified in Local Standard Time (LST). Add 1 hour to adjust for Daylight Saving Time where and when it is observed.

WESTERN HEAD
NOVA SCOTIA

43°59'24.070" N
64°39'51.008" W
10.10 m
8206240
71411
WWE

Download Data

Hourly Data (October 2017)
Hourly Data Report for October 5, 2017
Temp Definition
°C
Dew Point Temp Definition
°C
Rel Hum Definition
%
Wind Dir Definition
10's deg

Wind Spd Definition
km/h
Visibility Definition
km
Stn Press Definition
kPa
Hmdx Definition


Wind Chill Definition


Weather Definition


TIME
00:00 15.1 13.8 92 23 31   101.52     LegendNANA
01:00 15.4 14.1 92 22 29   101.44     LegendNANA
02:00 15.5 14.3 92 23 27   101.39     LegendNANA
03:00 15.4 14.2 93 23 29   101.30     LegendNANA
04:00 15.6 14.5 93 23 30   101.26     LegendNANA
05:00 15.7 14.3 92 24 24   101.27     LegendNANA
06:00 15.9 14.7 93 23 25   101.21     LegendNANA
07:00 16.2 14.8 92 24 22   101.24     LegendNANA
08:00 18.2 15.5 84 25 17   101.26     LegendNANA
09:00 19.5 15.6 78 26 17   101.30     LegendNANA
10:00 22.2 16.1 69 27 15   101.27 27   LegendNANA
11:00 22.9 15.7 64 29 14   101.27 27   LegendNANA
12:00 23.5 15.5 61 27 13   101.25 28   LegendNANA
13:00 23.6 13.1 52 27 17   101.17 26   LegendNANA
14:00 25.0 12.8 47 28 19   101.14 28   LegendNANA
15:00 24.5 10.7 42 27 19   101.13 26   LegendNANA
16:00 23.0 8.3 39 25 23   101.16     LegendNANA
17:00 20.7 10.3 51 25 14   101.16     LegendNANA
18:00 17.4 8.4 55 26 16   101.23     LegendNANA
19:00 14.9 8.1 64 27 12   101.29     LegendNANA
20:00 12.4 9.1 80 25 9   101.36     LegendNANA
21:00 12.6 11.0 90 25 11   101.42     LegendNANA
22:00 11.6 10.4 93 25 10   101.41     LegendNANA
23:00 11.8 11.0 95 23 10   101.40     LegendNANA

Notes on Data Quality.

Legend

  • E = Estimated
  • M = Missing
  • NA = Not Available
  • ‡ = Partner data that is not subject to review by the National Climate Archives
Date modified: